Location: Waco, TX
(31.5480°N, 97.1670°W)
Time: 15:31:43
(UTC-05:00)

ISS - Pass Details

Date: 20 October 2018
Orbit: 403 x 408 km, 51.6° (Epoch: 17 October)

Event Time Altitude Azimuth Distance (km) Brightness Sun altitude
Rises 16:15:38 0° 325° (NW) 2,330 0.0 29.4°
Reaches altitude 10° 16:17:55 10° 338° (NNW) 1,467 -1.1 29.0°
Maximum altitude 16:20:47 27° 39° (NE) 814 -2.6 28.5°
Drops below altitude 10° 16:23:39 10° 100° (E) 1,462 -1.3 28.0°
Sets 16:25:55 0° 113° (ESE) 2,318 -0.3 27.6°
